Date String (YYYY-MM-DD hh:mm:ss) UTC,Instrument flags,absolute air pressure of the measurement (hPa),sample flow rate (lpm),inlet stack bypass flow (lpm),air temperature of the measurement (°C),ambient temperature measured by the external sensor (°C),aerosol sample conditioner tube jacket temperature (°C),OPC LED temperature (°C),internal box temperature (°C),relative humidity of the measurement (%),span deviation,mass concentration of particles derived from Lorenz-Mie calculation of OPC scattering (μg/m³),mass concentration of particles derived from Lorenz-Mie calculation of OPC scattering (μg/m³),mass concentration of particles derived from Lorenz-Mie calculation of OPC scattering (μg/m³)
DateTimeUTC,F1_M11,P_M11,Q1_M11,Q2_M11,T1_M11,T2_M11,T3_M11,T4_M11,T5_M11,U1_M11,ZSPAN_M11,X0_M11,X2_M11,X1_M11
2023-10-28 15:00:00,SystemResetWarning,0832.3,5.00,000.00,021.9,021.0,000.0,030.2,023.5,14.1,0000.0,0010.29,0004.18,0003.35
2023-10-28 15:01:00,SystemResetWarning,0832.3,4.99,000.00,021.9,020.9,000.0,030.2,023.4,14.1,0000.0,0010.36,0004.13,0003.35
2023-10-28 15:02:00,SystemResetWarning,0832.3,5.00,000.00,021.9,020.8,000.0,030.3,023.4,14.1,0000.0,0010.76,0004.13,0003.34
2023-10-28 15:03:00,SystemResetWarning,0832.3,5.00,000.00,021.9,020.7,000.0,030.3,023.4,14.1,0000.0,0010.68,0004.13,0003.33
2023-10-28 15:04:00,SystemResetWarning,0832.3,5.00,000.00,021.9,020.6,000.0,030.3,023.4,14.1,0000.0,0010.70,0004.13,0003.33
2023-10-28 15:05:00,SystemResetWarning,0832.3,5.01,000.00,021.9,020.6,000.0,030.2,023.3,14.1,0000.0,0011.11,0004.15,0003.33
2023-10-28 15:06:00,SystemResetWarning,0832.2,5.01,000.00,021.9,020.5,000.0,030.2,023.3,14.1,0000.0,0011.11,0004.17,0003.34
2023-10-28 15:07:00,SystemResetWarning,0832.3,5.01,000.00,021.9,020.5,000.0,030.2,023.3,14.1,0000.0,0010.97,0004.17,0003.34
2023-10-28 15:08:00,SystemResetWarning,0832.3,5.00,000.00,021.9,020.5,000.0,030.2,023.3,14.1,0000.0,0010.41,0004.22,0003.35
2023-10-28 15:09:00,SystemResetWarning,0832.3,4.99,000.00,021.8,020.5,000.0,030.2,023.3,14.1,0000.0,0010.34,0004.23,0003.35
2023-10-28 15:10:00,SystemResetWarning,0832.3,5.00,000.00,021.8,020.5,000.0,030.2,023.3,14.0,0000.0,0010.85,0004.26,0003.35
2023-10-28 15:11:00,SystemResetWarning,0832.3,4.99,000.00,021.8,020.4,000.0,030.2,023.3,14.0,0000.0,0011.05,0004.22,0003.35
2023-10-28 15:12:00,SystemResetWarning,0832.3,4.99,000.00,021.8,020.4,000.0,030.2,023.3,14.1,0000.0,0010.87,0004.23,0003.36
2023-10-28 15:13:00,SystemResetWarning,0832.3,5.00,000.00,021.8,020.4,000.0,030.2,023.3,14.1,0000.0,0011.19,0004.24,0003.37
2023-10-28 15:14:00,SystemResetWarning,0832.2,5.01,000.00,021.8,020.4,000.0,030.2,023.3,14.2,0000.0,0011.21,0004.24,0003.38
2023-10-28 15:15:00,SystemResetWarning,0832.3,5.01,000.00,021.8,020.4,000.0,030.2,023.3,14.2,0000.0,0011.19,0004.25,0003.40
2023-10-28 15:16:00,SystemResetWarning,0832.3,5.00,000.00,021.8,020.4,000.0,030.2,023.3,14.2,0000.0,0010.47,0004.22,0003.40
2023-10-28 15:17:00,SystemResetWarning,0832.3,5.00,000.00,021.8,020.3,000.0,030.2,023.3,14.2,0000.0,0010.45,0004.22,0003.40
2023-10-28 15:18:00,SystemResetWarning,0832.3,5.00,000.00,021.8,020.3,000.0,030.2,023.3,14.2,0000.0,0010.28,0004.16,0003.40
2023-10-28 15:19:00,SystemResetWarning,0832.2,4.99,000.00,021.8,020.3,000.0,030.2,023.2,14.2,0000.0,0010.17,0004.13,0003.41
2023-10-28 15:20:00,SystemResetWarning,0832.2,5.00,000.00,021.7,020.3,000.0,030.1,023.2,14.2,0000.0,0009.81,0004.16,0003.43
2023-10-28 15:21:00,SystemResetWarning,0832.2,5.00,000.00,021.7,020.3,000.0,030.1,023.2,14.1,0000.0,0009.52,0004.16,0003.44
2023-10-28 15:22:00,SystemResetWarning,0832.2,5.00,000.00,021.7,020.3,000.0,030.1,023.2,14.1,0000.0,0009.18,0004.16,0003.45
2023-10-28 15:23:00,SystemResetWarning,0832.2,5.00,000.00,021.7,020.2,000.0,030.1,023.2,14.1,0000.0,0009.04,0004.14,0003.47
2023-10-28 15:24:00,SystemResetWarning,0832.2,5.01,000.00,021.7,020.2,000.0,030.1,023.2,14.2,0000.0,0008.24,0004.14,0003.47
2023-10-28 15:25:00,SystemResetWarning,0832.1,5.01,000.00,021.7,020.2,000.0,030.1,023.2,14.2,0000.0,0008.30,0004.20,0003.48
2023-10-28 15:26:00,SystemResetWarning,0832.2,5.00,000.00,021.7,020.2,000.0,030.1,023.2,14.1,0000.0,0008.34,0004.21,0003.49
2023-10-28 15:27:00,SystemResetWarning,0832.2,4.99,000.00,021.7,020.2,000.0,030.1,023.2,14.1,0000.0,0008.49,0004.23,0003.49
2023-10-28 15:28:00,SystemResetWarning,0832.2,5.00,000.00,021.7,020.2,000.0,030.1,023.2,14.1,0000.0,0008.64,0004.21,0003.49
2023-10-28 15:29:00,SystemResetWarning,0832.2,4.99,000.00,021.7,020.2,000.0,030.1,023.1,14.1,0000.0,0008.94,0004.27,0003.50
2023-10-28 15:30:00,SystemResetWarning,0832.2,5.00,000.00,021.7,020.2,000.0,030.0,023.1,14.1,0000.0,0008.97,0004.29,0003.49
2023-10-28 15:31:00,SystemResetWarning,0832.2,5.00,000.00,021.7,020.2,000.0,030.0,023.2,14.0,0000.0,0008.86,0004.25,0003.48
2023-10-28 15:32:00,SystemResetWarning,0832.3,5.01,000.00,021.7,020.6,000.0,030.0,023.5,14.0,0000.0,0009.02,0004.24,0003.48
2023-10-28 15:33:00,SystemResetWarning,0832.3,5.01,000.00,021.8,021.5,000.0,029.9,023.8,13.8,0000.0,0009.02,0004.25,0003.48
2023-10-28 15:34:00,SystemResetWarning,0832.3,4.98,000.00,021.9,021.6,000.0,030.0,023.8,13.7,0000.0,0008.88,0004.24,0003.49
2023-10-28 15:35:00,SystemResetWarning,0832.3,5.00,000.00,021.9,021.5,000.0,030.1,023.7,13.8,0000.0,0008.84,0004.26,0003.51
2023-10-28 15:36:00,SystemResetWarning,0832.3,5.01,000.00,021.9,021.4,000.0,030.1,023.6,13.8,0000.0,0008.73,0004.23,0003.52
2023-10-28 15:37:00,SystemResetWarning,0832.3,5.01,000.00,021.9,021.2,000.0,030.1,023.5,13.8,0000.0,0008.96,0004.24,0003.52
2023-10-28 15:38:00,SystemResetWarning,0832.3,5.00,000.00,021.9,021.1,000.0,030.2,023.5,13.8,0000.0,0009.19,0004.26,0003.54
2023-10-28 15:39:00,SystemResetWarning,0832.3,4.99,000.00,021.9,021.0,000.0,030.2,023.5,13.8,0000.0,0009.21,0004.31,0003.56
2023-10-28 15:40:00,SystemResetWarning,0832.4,4.99,000.00,021.9,020.9,000.0,030.2,023.4,13.9,0000.0,0009.01,0004.30,0003.58
2023-10-28 15:41:00,SystemResetWarning,0832.4,5.01,000.00,021.9,020.8,000.0,030.2,023.4,13.8,0000.0,0009.15,0004.34,0003.60
2023-10-28 15:42:00,SystemResetWarning,0832.5,5.01,000.00,021.9,020.7,000.0,030.2,023.4,13.8,0000.0,0009.52,0004.37,0003.62
2023-10-28 15:43:00,SystemResetWarning,0832.6,5.00,000.00,021.9,020.6,000.0,030.2,023.4,13.7,0000.0,0009.22,0004.41,0003.64
2023-10-28 15:44:00,SystemResetWarning,0832.5,4.99,000.00,021.9,020.6,000.0,030.2,023.4,13.7,0000.0,0009.20,0004.43,0003.66
2023-10-28 15:45:00,SystemResetWarning,0832.5,4.99,000.00,021.8,020.5,000.0,030.2,023.3,13.8,0000.0,0009.27,0004.46,0003.67
2023-10-28 15:46:00,SystemResetWarning,0832.5,5.01,000.00,021.8,020.5,000.0,030.2,023.3,13.9,0000.0,0009.55,0004.49,0003.67
2023-10-28 15:47:00,SystemResetWarning,0832.5,5.02,000.00,021.8,020.5,000.0,030.2,023.3,13.9,0000.0,0010.20,0004.51,0003.68
2023-10-28 15:48:00,SystemResetWarning,0832.5,5.00,000.00,021.8,020.4,000.0,030.2,023.3,14.0,0000.0,0010.45,0004.53,0003.69
2023-10-28 15:49:00,SystemResetWarning,0832.5,4.99,000.00,021.8,020.4,000.0,030.2,023.3,14.0,0000.0,0010.37,0004.52,0003.69
2023-10-28 15:50:00,SystemResetWarning,0832.5,5.00,000.00,021.8,020.4,000.0,030.2,023.3,14.0,0000.0,0010.48,0004.50,0003.69
2023-10-28 15:51:00,SystemResetWarning,0832.5,4.99,000.00,021.8,020.4,000.0,030.2,023.3,14.0,0000.0,0010.73,0004.53,0003.70
2023-10-28 15:52:00,SystemResetWarning,0832.5,4.99,000.00,021.8,020.3,000.0,030.2,023.3,14.0,0000.0,0010.82,0004.51,0003.71
2023-10-28 15:53:00,SystemResetWarning,0832.6,5.00,000.00,021.8,020.3,000.0,030.1,023.3,13.9,0000.0,0010.58,0004.51,0003.72
2023-10-28 15:54:00,SystemResetWarning,0832.5,5.00,000.00,021.8,020.3,000.0,030.1,023.3,13.9,0000.0,0010.77,0004.54,0003.73
2023-10-28 15:55:00,SystemResetWarning,0832.5,5.00,000.00,021.8,020.3,000.0,030.1,023.3,14.0,0000.0,0010.88,0004.57,0003.74
2023-10-28 15:56:00,SystemResetWarning,0832.5,5.00,000.00,021.8,020.3,000.0,030.1,023.3,13.9,0000.0,0010.88,0004.57,0003.75
2023-10-28 15:57:00,SystemResetWarning,0832.5,5.00,000.00,021.8,020.3,000.0,030.1,023.3,14.0,0000.0,0011.41,0004.58,0003.77
2023-10-28 15:58:00,SystemResetWarning,0832.5,4.99,000.00,021.7,020.3,000.0,030.1,023.2,14.0,0000.0,0011.12,0004.57,0003.78
2023-10-28 15:59:00,SystemResetWarning,0832.5,4.99,000.00,021.7,020.3,000.0,030.1,023.2,13.9,0000.0,0010.72,0004.54,0003.79
